Location: Piotrkow Trybunalski
(51.4000°N, 19.6830°E)
Time: 15:38:00
(UTC+01:00)

ISS - Pass Details

Date: 30 January 2020
Orbit: 415 x 422 km, 51.6° (Epoch: 26 February)

Event Time Altitude Azimuth Distance (km) Brightness Sun altitude
Rises 18:27:29 0° 276° (W) 2,380 1.6 -18.8°
Reaches altitude 10° 18:29:36 10° 277° (W) 1,514 0.2 -19.1°
Maximum altitude 18:33:00 89° 354° (N) 428 -3.9 -19.7°
Enters shadow 18:33:07 83° 89° (E) 432 -3.9 -19.7°
